Location: Eberbach
(49.4690°N, 8.9930°E)
Time: 17:18:42
(UTC+02:00)

ISS - Pass Details

Date: 30 September 2021
Orbit: 418 x 423 km, 51.6° (Epoch: 19 October)

Event Time Altitude Azimuth Distance (km) Brightness Sun altitude
Rises 21:02:10 0° 289° (WNW) 2,366 1.7 -19.7°
Reaches altitude 10° 21:04:18 10° 284° (WNW) 1,501 0.3 -20.0°
Enters shadow 21:07:34 49° 209° (SSW) 546 -3.2 -20.5°
